User: anonymous   Login
Location: Campillo
(40.8621°N, 4.2488°W)
Time: 13:20:48
(UTC+00:00)
Language:

Cosmos 1666 Rocket - Orbit

View from above orbital plane
View from above orbital plane
View from above satellite
View from above satellite

Ground track
Ground track

The orbit data is extracted from the following two-line orbital elements,

1 15890U 85058B   21211.67845029  .00000082  00000-0  70883-5 0  9998
2 15890  82.5273 292.6123 0019500 302.3603 210.7122 14.83483633926789
Epoch (UTC): 30 July 2021 16:16:58
Eccentricity: 0.0019500
inclination: 82.5273°
perigee height: 605 km
apogee height: 632 km
right ascension of ascending node: 292.6123°
argument of perigee: 302.3603°
revolutions per day: 14.83483633
mean anomaly at epoch: 210.7122°
orbit number at epoch: 92678

The dashed part of the orbit path shows where the satellite is in the earth's shadow,  

DLR